Showing default

ICEYE-X30, 56947

Orbit data source: Space-Track

ICEYE-X30, 56947 is a payload satellite owned by ICEYE US (US) in SSO that was launched on Mon, 12 Jun 2023 UTC via an FALCON 9 launch vehicle from the Air Force Western Test Range (AFWTR). Payload-class satellites include a variety of spacecraft equipped with specific instruments for various scientific and technological missions. These include communications satellites like Starlink; space stations such as the ISS; scientific satellites like the Hubble; Earth observation satellites from companies like Planet Labs, Umbra, and HawkEye 360; GPS; miniature CubeSats for education and research; and military/defense satellites.

Loading next visibility...
Identifier
56947, 2023-084R
Orbit
SSO
Country
Flag of USUS
Related business
Manufacturer
ICEYE
Mission
Operational Commercial Radar Imaging
Bus & Motor
ICEYE, Unknown motor
Mass
90 kg wet, 89 kg dry
Launch date (UTC)
2023-06-12 (3 years ago)
Launch vehicle
FALCON 9
Launch site
Air Force Western Test Range (AFWTR)
Object type
Payload
Rocket body
Debris
Shape & HBR
Box + 1 Pan, 1.6 m
Radar Cross Section
0.825 m², Medium (>0.1 m² and < 1m²)

Expand to show TLE details & history
Last TLE update: 1 day ago

TLE from 1 day ago
0 ICEYE-X30
1 56947U 23084R   26062.39471098  .00109694  00000-0  86441-3 0  9990
2 56947  97.5705 213.1260 0004303 297.9785  62.1042 15.71094982152232
Epoch: 2026-03-03T09:28Z
TLE epoch observation values (Epoch: 2026-03-03T09:28:23.028Z)
Latitude
0.00002°
Longitude
-90.14435°
Altitude
357.566 km
Speed
7.695 km/s
True Right ascension
14h 12m 30s
True Declination
0° 00' 00"
Sunlit
Object was in full shadow at epoch
Visualization orbit readout
Latitude
Unknown
Longitude
Unknown
Altitude
Unknown
Speed
Unknown
Apparent Right ascension
Unknown
Apparent Declination
Unknown
Sunlit
N/A
Visualization observer readout
Local Sidereal Time
13:46:43
Azimuth
Unknown
Elevation
Unknown
Doppler factor
Unknown
Orbital elements
Apogee altitude
355.568 km
Perigee altitude
349.775 km
Semi-major axis
6,730.809 km
Eccentricity
0.00043
Inclination
97.5705°
RAAN
213.126°
Arg. of periapsis
297.9785°
True anomaly
62.14779°
Mean anomaly
62.1042°
Eccentric anomaly
62.12599°
Mean motion
3.93045 °/min
Orbital period
91.59 mins
BSTAR
0.00086441
Loading maneuver chart data...
Computing Atmospheric mass density...
Loading historical data...
Loading historical data...
Loading historical data...
Loading historical data...
Loading historical data...
Loading historical data...
Loading historical data...

Documentation

Showing up to 5 results
|